World > North America > United States > Missouri > Webb City  

Webb City, MO Hourly Weather Updates

Feedback E-mail the Weather

Quick Clicks

Webb City, MO Weather Maps

°F °C°F °C
Webb City Weather Map
UTC Time: 6/18/2024, 17:46
Your Time:

Webb City, MO Regional Weather

Expires:202406181800;;243832
ASUS43 KEAX 181715
RWREAX

WEATHER ROUNDUP FOR EASTERN KANSAS AND NORTHWEST MISSOURI
NATIONAL WEATHER SERVICE KANSAS CITY/PLEASANT HILL MO
1200 PM CDT TUE JUN 18 2024


MOZ041-047>049-056>058-063>065-088>090-097-181800-
...EASTERN AND SOUTHERN MISSOURI...
  
CITY           SKY/WX    TMP DP  RH WIND       PRES   REMARKS
ST. LOUIS INTL PTSUNNY   86  69  56 S12       30.04S HX  90           
SPIRIT OF STL  PTSUNNY   85  70  60 S15G24    30.01F                  
COLUMBIA       MOSUNNY   87  70  56 S16G26    29.97S HX  92           
JEFFERSON CITY SUNNY     88  69  53 S14G25    29.96S HX  92           
MEXICO         MOSUNNY   86  70  58 S16G24    29.97S HX  90           
ROLLA          MOSUNNY   84  69  60 S18G26    30.03S                  
LEBANON        MOSUNNY   82  70  65 S15G22    30.03S                  
OSAGE BEACH    PTSUNNY   85  70  60 S13G25    29.99R                  
SPRINGFIELD    MOSUNNY   84  69  60 S22G31    29.98S                  
BRANSON        MOSUNNY   82  70  65 S12G21    30.04R                  
JOPLIN         MOSUNNY   86  67  52 S22G32    29.94R                  
WEST PLAINS    PTSUNNY   79  68  69 S13G22    30.08R                  

$$


SKY/WX - Weather  TMP - Temperature  DP - Dew Point  RH - Humidity
WIND - Wind Direction/Speed PRES - Barometric Pressure VSB - Visibility
WCI - Wind Chill Index E13G22 Wind - East Wind 13 mph/Gusts of 22 mph

Trending Headlines

Trending Entertainment Headlines

Webb City Radar Loop

Use the map search tool if you want to place a location marker on the radar map...

Webb City Quick Facts

National Two Day Weather Forecast


E-mail the Webb City Weather Forecast

Voice your opinion or tell us about page issues...